Regional Weather Roundup
Issued by NWS

Home | Current Version | Previous Version | Graphics & Text | Print | Product List | Glossary On
Versions: 1 2 3 4 5 6 7 8 9 10 11 12 13 14 15 16 17 18 19 20 21 22 23 24 25 26 27 28 29 30 31 32 33 34 35 36 37 38 39 40 41 42 43 44 45 46 47 48 49 50
000
ASUS43 KMPX 231910
RWRMN
WEATHER ROUNDUP FOR MINNESOTA
NATIONAL WEATHER SERVICE TWIN CITIES/CHANHASSEN MN
200 PM CDT TUE MAY 23 2017


NOTE: "FAIR" INDICATES FEW OR NO CLOUDS BELOW 12,000 FEET WITH NO
SIGNIFICANT WEATHER AND/OR OBSTRUCTIONS TO VISIBILITY. N/A MEANS
CURRENT SKY AND/OR WEATHER CONDITIONS ARE NOT AVAILABLE.

MNZ060>063-068>070-232000-
   Twin Cities Metro

CITY           SKY/WX    TMP DP  RH WIND       PRES   REMARKS
TWIN CITIES    CLOUDY    60  42  51 NE13G22   29.80F
ST PAUL        CLOUDY    59  47  64 NE10      29.81S
CRYSTAL        CLOUDY    57  42  57 N12       29.79F
BLAINE         CLOUDY    61  45  55 N8        29.80F
LAKEVILLE      LGT RAIN  55  46  71 E14       29.80S
EDEN PRAIRIE   PTSUNNY   58  50  75 N6        29.79F
SOUTH ST PAUL  CLOUDY    58  45  61 NE9       29.80S
LAKE ELMO      FAIR      59  48  67 E9        29.82S
$$
MNZ001>005-007-008-013>017-022>024-027-028-232000-
   Northwest Minnesota

CITY           SKY/WX    TMP DP  RH WIND       PRES   REMARKS
BEMIDJI        CLOUDY    49  45  87 N10       29.94S
HALLOCK        CLOUDY    63  37  39 NE20G25   30.00F
ROSEAU         MOSUNNY   63  45  51 E22G28    29.99S
WARROAD        SUNNY    N/A N/A N/A NE13G20   30.01S
THIEF RVR FALL CLOUDY    55  42  61 NE18G28   29.98F
CROOKSTON      PTSUNNY   57  45  62 NE14G21   29.98F
FOSSTON        CLOUDY    48  48 100 NE12      29.97S
DETROIT LAKES  CLOUDY    52  45  76 N8        29.93S
MOORHEAD       PTSUNNY   52  46  82 N16       29.96S
PARK RAPIDS    LGT RAIN  55  43  63 NE13G18   29.90S
MAHNOMEN       CLOUDY    49  45  84 NE17      29.94F
$$
MNZ006-009>011-018-025>026-232000-
   North Central Minnesota

CITY           SKY/WX    TMP DP  RH WIND       PRES   REMARKS
BAUDETTE       CLOUDY    55  42  61 NE16G25   29.97F
FLAG ISLAND    MOSUNNY   57  39  51 NE17G23   29.99F
INTL FALLS     CLOUDY    52  43  71 N9        29.95F
WASKISH        CLOUDY    52  45  76 NE12      29.96F
BIG FORK       LGT RAIN  52  46  82 N8        29.93S
LONGVILLE      PTSUNNY   55  46  71 N5        29.89F
GRAND RAPIDS   LGT RAIN  52  48  86 N6        29.91S
CRANE LAKE     CLOUDY    50  45  81 N8        29.95S
ORR            CLOUDY    48  43  81 CALM      29.91R
COOK           CLOUDY    52  46  82 N7        29.92S
WALKER         CLOUDY    51  46  85 N9G18     29.91S
$$
MNZ012-019>021-037-232000-
   Northeast Minnesota

CITY           SKY/WX    TMP DP  RH WIND       PRES   REMARKS
DULUTH         CLOUDY    54  46  74 E10       29.87S
ELY            CLOUDY    48  46  93 NE6       29.91R
HIBBING        CLOUDY    56  48  74 N14       29.88S
EVELETH        MOSUNNY   57  45  65 N12G18    29.89S
DULUTH HARBOR  FOG       46  45  93 NE15      29.89F VSB 1
TWO HARBORS    CLOUDY    54  48  82 E9        29.87S
SILVER BAY     CLOUDY    52  46  82 E8        29.88S
G MARAIS ARPRT CLOUDY    48  43  81 N8        29.89F HAZE
$$
MNZ029>031-032-039>041-046>048-054>057-064-232000-
   West Central Minnesota

CITY           SKY/WX    TMP DP  RH WIND       PRES   REMARKS
FERGUS FALLS   DRIZZLE   54  50  87 NE8G16    29.89S
WHEATON        MOSUNNY   55  48  76 N20G26    29.92S
MORRIS         MOSUNNY   57  48  72 N16       29.86F
ALEXANDRIA     CLOUDY    56  44  64 NE14      29.87F
ELBOW LAKE     PTSUNNY   55  45  67 NE9       29.89S
WADENA         MOSUNNY   55  45  67 NE7       29.88F
GLENWOOD       PTSUNNY   54  45  71 NE10      29.87S
APPLETON       CLOUDY    57  46  67 NE15      29.86S
BENSON         PTSUNNY   55  45  67 E10G16    29.87F
ORTONVILLE     PTSUNNY   55  48  76 N20       29.87F
MADISON        CLOUDY    55  54  94 N12       29.87S
WILLMAR        FAIR      57  46  67 NE13G18   29.86S
$$
MNZ033>034-036-042>043-049>051-058-059-232000-
   Central Minnesota

CITY           SKY/WX    TMP DP  RH WIND       PRES   REMARKS
ST CLOUD       LGT RAIN  53  49  86 N8        29.84S
SAUK CENTRE    CLOUDY    55  44  67 N10       29.86F
PAYNESVILLE    CLOUDY    54  44  70 N7        29.85S
AITKIN         CLOUDY    55  43  62 N9G17     29.86S
PINE RIVER     CLOUDY    55  45  67 N9        29.92S
BRAINERD       CLOUDY    56  42  59 N12       29.87F
STAPLES        PTSUNNY   55  39  54 NE10G16   29.88S
LONG PRAIRIE   PTSUNNY   54  43  66 N7G16     29.87F
LITTLE FALLS   CLOUDY    55  43  62 NE5       29.85S
LITCHFIELD     PTSUNNY   55  48  76 N7        29.84F
BUFFALO        CLOUDY    58  45  60 NE9       29.83F
MAPLE LAKE     CLOUDY    57  49  73 N7        29.83F
HUTCHINSON     CLOUDY    56  48  74 N7        29.84S
$$
MNZ037-044-045-052-053-232000-
   East Central Minnesota

CITY           SKY/WX    TMP DP  RH WIND       PRES   REMARKS
PRINCETON      CLOUDY    61  48  63 NW9       29.83S
MORA           PTSUNNY   55  43  62 E8        29.85S
CAMBRIDGE      CLOUDY    61  45  55 NE8G17    29.80S
RUSH CITY      CLOUDY    58  46  64 NE9       29.83S
MOOSE LAKE     CLOUDY    55  43  62 NE9       29.84F
HINCKLEY       LGT RAIN  55  46  71 NE6       29.84S
CLOQUET        CLOUDY    54  43  66 E8        29.86F
MCGREGOR       CLOUDY    55  43  62 NE8       29.87F
$$
MNZ071>073-080-081-089-090-097-098-232000-
   Southwest Minnesota

CITY           SKY/WX    TMP DP  RH WIND       PRES   REMARKS
MONTEVIDEO     CLOUDY    55  46  71 NE15      29.85F
CANBY          RAIN      51  49  92 NW15G22   29.87F
MARSHALL       CLOUDY    53  47  79 N13       29.85F
REDWOOD FALLS  CLOUDY    54  44  69 NE9       29.83F
OLIVIA         CLOUDY    54  45  71 N12       29.83F
PIPESTONE      CLOUDY    55  41  58 N13G21    29.85S
WINDOM         CLOUDY    54  45  71 N12       29.82F
WORTHINGTON    CLOUDY    53  46  77 N18       29.83F
JACKSON        CLOUDY    50  45  81 N8        29.82F
TRACY          LGT RAIN  52  49  89 N14       29.84F
SLAYTON        CLOUDY    50  46  84 N13G20    29.85F
$$
MNZ065>067-074>077-082>085-091>093-232000-
   South Central Minnesota

CITY           SKY/WX    TMP DP  RH WIND       PRES   REMARKS
MANKATO        CLOUDY    54  47  77 N12       29.81S
NEW ULM        CLOUDY    54  46  76 N7        29.82S
ST JAMES       CLOUDY    54  46  76 N13       29.82F
FAIRMONT       CLOUDY    52  46  82 N21       29.80F
GLENCOE        CLOUDY    57  50  78 N12       29.81F
FARIBAULT      CLOUDY    55  48  76 N7        29.80S
OWATONNA       RAIN      52  46  82 NE6       29.80S
WASECA         LGT RAIN  54  46  76 N9        29.80F
ALBERT LEA     DRIZZLE   54  48  82 NW6       29.79S
$$
MNZ078>079-086>088-094>096-232000-
   Southeast Minnesota

CITY           SKY/WX    TMP DP  RH WIND       PRES   REMARKS
ROCHESTER      LGT RAIN  50  48  93 N9        29.79S
RED WING       DRIZZLE   55  46  71 NE6       29.79S
STANTON        LGT RAIN  54  49  86 NE8       29.80S
DODGE CENTER   DRIZZLE   52  46  82 N13       29.79S
WINONA         CLOUDY    54  48  82 N5        29.75F
AUSTIN         RAIN      52  48  87 CALM      29.78S
PRESTON        LGT RAIN  50  48  91 N12       29.76F
$$
ABBREVIATIONS USED IN REMARKS
   TC - TEMPERATURES IN CELSIUS
  WCI - WIND CHILL INDEX
   HX - HEAT INDEX
  VSB - VISIBILITY
$$



USA.gov is the U.S. government's official web portal to all federal, state and local government web resources and services.